SCP
-0 -0 -0 -0 -0 -0 -0 -0 -0 -0 0 0 0 0 0 0 0 0 0 0 0 0 0 0 0 0 0 0 0 0 0 0 0 0 0 0 0 0 0 0 0 0 0 0 0 0 0
-0 -0 -0 -0 -0 -0 -0 -0 -0 -0 0 0 0 0 0 0 0 -0 0 0 0 0 0 0 0 0 0 0 0 0 0 0 0 0 0 0 0 0 0 0 0 0 0 0 0 0 0
-0 -0 -0 -0 -0 -0 -0 -0 0 -0 -0 -0 0 0 0 0 0 -0 0 0 0 0 0 0 0 0 0 0 0 0 0 0 0 0 0 0 0 0 0 0 0 0 0 0 0 0 0
-0 -0 -0 -0 -0 -0 -0 -0 -0 -0 -0 -0 0 0 0 0 0 -0 -0 0 0 0 0 0 0 0 0 0 0 0 0 0 0 0 0 0 -0 0 0 0 0 0 0 0 0 0 0
0 0 0 0 0 0 -0 -0 -0 -0 -0 0 -0 0 0 0 0 -0 -0 -0 0 0 0 0 0 0 0 0 0 0 0 0 0 0 0 0 0 0 -0 0 -0 -0 -0 -0 0 0 0
0 0 0 0 0 0 -0 -0 -0 -0 -0 -0 0 0 0 0 0 -0 -0 0 0 0 0 0 0 0 0 0 0 0 0 0 0 0 0 0 0 0 0 -0 -0 -0 -0 -0 0 0 0
0 0 0 0 0 0 0 -0 -0 -0 -0 -0 0 -0 0 0 0 0 0 0 0 0 0 0 0 0 0 0 0 0 0 0 0 0 0 0 0 0 -0 -0 0 -0 0 0 0 0 0
0 0 0 0 0 0 0 -0 -0 -0 -0 -0 0 -0 0 0 0 0 0 0 0 0 0 0 0 0 0 0 0 0 0 0 0 0 0 0 0 0 0 -0 -0 -0 0 0 0 0 0
0 0 0 0 0 0 0 -0 -0 -0 -0 -0 0 -0 0 0 0 0 0 0 0 0 0 0 0 0 0 0 0 0 0 0 0 0 0 0 0 0 0 0 0 -0 0 0 0 0 0
0 0 0 0 0 0 0 0 -0 -0 -0 -0 -0 -0 0 0 0 0 0 0 0 0 0 0 0 0 0 0 0 0 0 0 0 0 0 0 0 -0 -0 0 0 0 -0 0 0 0 0
0 0 0 0 -0 0 0 0 0 -0 -0 -0 0 -0 0 0 0 0 0 0 0 0 0 0 0 0 0 0 0 0 0 0 0 0 0 0 0 0 0 0 0 0 0 0 0 0 0
0 0 0 0 -0 -0 0 0 0 0 -0 -0 -0 0 0 0 0 0 0 0 0 0 0 0 0 0 0 0 0 0 0 0 0 0 0 0 0 0 0 0 0 -0 -0 -0 -0 0 0
0 0 0 0 0 0 0 0 0 0 0 0 -0 0 0 0 0 0 0 0 0 0 0 0 0 0 0 0 0 0 0 0 0 0 0 0 0 0 0 0 0 0 0 0 -0 0 -0
0 0 0 0 0 0 0 0 0 0 -0 0 -0 0 0 0 0 0 0 0 0 0 0 0 0 0 0 0 0 0 0 0 0 0 0 0 0 0 0 0 0 0 0 0 0 0 -0
0 0 0 0 0 0 0 0 0 0 0 -0 0 0 0 0 0 0 0 0 0 0 0 0 0 0 0 0 0 0 0 0 0 0 0 0 0 0 0 0 0 0 0 0 0 0 -0
0 0 0 0 0 0 0 0 0 0 0 0 0 0 0 0 0 0 0 0 0 0 0 0 0 0 0 0 0 0 0 0 0 0 0 0 0 0 0 -0 -0 0 0 0 0 0 0
0 0 0 0 0 0 0 0 0 0 0 0 0 0 0 0 0 0 0 0 0 0 0 0 0 0 0 0 0 0 0 0 0 0 0 0 0 0 0 0 0 -0 0 0 0 0 0
0 0 0 0 0 0 0 0 0 0 0 0 0 0 0 0 0 0 0 0 0 0 0 0 0 0 0 0 0 0 0 0 0 0 0 0 0 0 0 0 0 0 0 0 0 0 0
0 0 0 0 0 0 0 0 0 0 0 0 0 0 0 0 0 0 0 0 0 0 0 0 0 0 0 0 0 0 0 0 0 0 0 0 0 0 0 0 0 0 0 0 0 0 0
0 0 0 0 0 0 0 0 0 0 0 0 0 0 0 0 0 0 0 0 0 0 0 0 0 0 0 0 0 0 0 0 0 0 0 0 0 0 0 0 0 0 0 0 0 0 0
0 0 0 0 0 0 0 0 0 0 0 0 0 0 0 0 0 0 0 0 0 0 0 0 0 0 0 0 0 0 0 0 0 0 0 0 0 0 0 0 0 0 0 0 0 0 -0
0 0 0 0 0 0 0 0 0 0 0 0 0 0 0 0 0 0 0 0 0 0 0 0 0 0 0 0 0 0 0 0 0 0 0 0 0 0 0 0 0 0 -0 -0 0 0 -0
0 0 0 0 0 0 0 0 0 0 0 0 0 0 0 0 0 0 0 0 0 0 0 0 0 0 0 0 0 0 0 0 0 0 0 0 0 0 0 0 0 0 0 0 0 0 0
0 0 0 0 0 0 0 0 0 0 0 0 0 0 0 0 0 0 0 0 0 0 0 0 0 0 0 0 0 0 0 0 0 0 0 0 0 0 0 0 0 0 0 0 0 0 0
0 0 0 0 0 0 0 0 0 0 0 0 0 0 0 0 0 0 0 0 0 0 0 0 0 0 0 0 0 0 0 0 0 0 0 0 0 0 0 0 0 0 0 0 0 0 0
0 0 0 0 0 0 0 0 0 0 0 0 0 0 0 0 0 0 0 0 0 0 0 0 0 0 0 0 0 0 0 0 0 0 0 0 0 0 0 0 0 0 0 0 0 0 0
0 0 0 0 0 0 0 0 0 0 0 0 0 0 0 0 0 0 0 0 0 0 0 0 0 0 0 0 0 0 0 0 0 0 0 0 0 0 0 0 0 0 0 0 0 0 0
0 0 0 0 0 0 0 0 0 0 0 0 0 0 0 0 0 0 0 0 0 0 0 0 0 0 0 0 0 0 0 0 0 0 0 0 0 0 0 0 0 0 -0 0 0 0 0
0 0 0 0 0 0 0 0 0 0 0 0 0 0 0 0 0 0 0 0 0 0 0 0 0 0 0 0 0 0 0 0 0 0 0 0 0 0 0 0 0 -0 0 0 0 0 0
Wind_Speed_500mb
12 16 20 22 25 29 32 32 26 16 15 15 10 12 13 11 9 12 19 27 25 28 32 29 28 25 24 10 13 20 19 20 17 10 3 5 10 6 6 9 8 7 7 15 19 20 26
11 15 18 22 27 30 32 34 34 26 17 16 16 15 18 19 18 15 15 20 26 25 27 30 25 24 25 11 25 21 19 19 17 8 8 8 4 10 1 4 7 3 4 16 34 34 21
10 14 18 23 25 28 30 33 35 35 27 18 17 18 19 22 23 20 17 17 25 23 28 24 25 19 12 18 25 19 19 19 23 8 12 5 11 9 8 10 8 6 7 12 25 9 11
9 13 17 20 23 27 29 33 35 37 36 26 17 19 23 21 22 23 20 16 22 25 23 20 23 15 6 25 26 23 18 14 17 12 5 7 7 6 4 2 6 5 4 4 13 22 17
8 12 15 18 21 24 27 31 34 37 40 34 20 19 27 22 19 19 18 15 20 18 19 10 19 12 8 20 29 22 18 16 13 10 6 6 4 8 7 3 5 4 3 5 19 27 11
8 11 14 17 20 24 27 30 33 37 41 40 26 20 29 22 17 14 14 12 17 9 16 6 16 6 9 23 27 19 15 13 8 7 7 4 4 4 3 4 4 5 6 4 15 9 7
8 11 13 16 20 23 27 29 33 37 41 44 33 20 28 23 14 10 11 8 9 6 4 4 5 1 19 27 14 14 13 10 8 6 3 4 3 2 11 10 13 7 5 11 5 4 7
10 12 16 18 20 23 25 30 34 38 42 45 37 20 26 20 9 6 7 4 4 4 6 7 9 15 14 19 11 15 15 6 5 5 5 4 7 7 13 15 15 12 8 7 4 6 4
11 12 15 19 20 22 24 27 33 37 42 46 37 20 24 14 9 2 5 4 3 4 2 7 10 13 10 14 9 15 17 9 2 7 5 3 10 13 7 3 4 6 5 4 3 5 8
13 14 15 18 20 22 23 26 30 35 40 46 39 18 22 11 7 4 1 3 2 1 9 10 6 5 12 8 6 16 13 6 5 6 9 8 12 10 8 7 5 4 11 5 4 5 3
15 15 16 17 19 22 23 25 29 34 37 43 40 17 20 11 7 4 1 3 2 5 8 8 10 10 19 6 10 9 13 5 4 8 5 10 9 9 7 6 5 1 6 4 5 8 7
21 18 17 18 18 19 21 25 29 31 36 42 37 16 21 13 7 4 1 2 5 12 7 10 9 11 9 5 6 11 5 7 6 6 6 10 4 4 5 6 3 6 4 11 8 6 7
23 23 21 21 22 20 21 23 27 30 34 39 32 13 22 13 7 1 1 3 10 10 4 9 6 9 5 6 10 12 8 10 7 12 11 14 5 4 3 1 2 5 8 6 7 6 8
28 27 26 26 25 24 21 22 25 28 31 36 29 10 18 13 6 1 3 9 10 6 8 5 4 7 6 7 3 12 5 6 2 7 2 6 14 2 4 3 8 5 10 9 5 4 7
34 31 31 29 29 28 26 23 24 25 29 34 28 10 9 13 6 1 1 9 12 10 2 6 9 4 7 2 2 7 6 3 5 3 7 6 10 9 4 8 7 4 4 5 10 4 5
43 40 36 35 32 30 29 27 24 24 26 31 27 11 7 10 5 2 7 6 5 6 6 5 0 2 4 8 9 7 4 2 4 3 2 7 7 3 8 6 5 4 3 5 5 2 7
49 48 45 41 38 34 31 30 27 24 27 27 22 8 5 7 4 1 5 8 7 10 7 6 7 4 8 5 3 4 5 5 4 4 3 2 0 11 1 4 7 6 5 5 5 6 2
55 53 51 48 45 40 34 31 30 25 24 22 12 4 7 4 1 3 3 7 3 6 8 6 4 9 7 3 5 5 7 10 5 2 2 0 5 9 10 1 1 3 5 6 6 3 4
62 61 59 54 52 47 40 34 31 27 21 21 12 9 10 6 2 4 5 5 6 7 8 7 6 9 6 6 3 6 5 3 7 7 5 5 2 8 13 8 3 2 1 6 5 6 8
68 64 62 64 59 52 45 38 34 28 22 16 9 4 7 8 5 7 3 5 4 7 6 8 6 3 3 5 10 6 4 2 4 3 6 6 4 10 11 10 5 9 4 5 6 4 2
76 71 66 63 63 61 52 41 37 32 23 13 9 8 5 4 6 6 6 3 5 5 8 9 4 11 11 6 4 8 5 5 1 1 3 4 6 7 13 18 8 10 13 11 13 9 9
84 80 74 69 66 65 60 47 39 35 29 23 9 8 6 3 3 6 7 10 13 6 11 8 9 3 12 10 12 10 5 7 6 1 0 3 5 6 10 1 8 11 15 16 11 7 16
86 86 81 75 72 66 62 52 43 39 34 21 23 21 8 6 7 7 9 12 14 11 10 8 14 5 9 17 24 18 17 8 5 9 5 1 2 6 10 8 13 11 10 11 9 9 11
87 97 86 81 77 72 63 54 50 46 43 37 23 18 13 8 8 11 7 14 14 14 6 6 14 9 4 5 6 10 9 12 10 10 9 8 5 3 7 10 5 7 4 8 13 11 17
80 91 101 89 82 78 69 61 55 52 49 46 38 28 15 7 16 11 18 12 9 9 8 10 15 11 7 2 3 7 4 2 3 1 6 5 7 2 1 4 13 4 3 5 5 10 11
90 87 99 101 87 80 71 68 62 56 53 49 45 38 21 5 15 18 10 18 10 7 5 9 10 11 9 5 3 6 9 6 5 3 7 7 6 6 3 2 7 1 1 5 3 9 4
71 80 99 102 88 78 72 70 64 59 55 53 44 42 37 14 20 20 11 12 15 8 4 3 9 10 12 5 6 8 8 5 5 9 9 5 2 8 6 7 14 5 6 5 5 9 3
32 48 80 96 86 79 74 73 66 60 54 56 56 44 44 16 30 22 26 17 16 13 8 13 7 4 5 6 7 6 7 6 2 6 9 11 11 7 4 3 11 7 6 6 5 9 10
39 21 48 100 81 72 73 73 67 61 61 57 61 53 46 36 15 27 38 33 29 20 19 26 5 10 15 6 3 1 5 3 5 4 2 4 6 3 12 8 3 5 10 13 25 26 23
Wind_Direction_500mb
26 24 36 35 39 37 32 25 16 7 5 355 316 285 275 269 284 320 348 357 353 358 2 3 2 4 13 12 5 354 349 344 344 330 17 217 254 220 191 171 243 241 282 277 274 291 289
25 30 32 35 33 32 29 26 22 13 359 347 341 306 277 267 267 289 323 345 350 350 351 2 354 359 13 25 2 357 358 8 358 332 309 289 210 253 301 227 198 251 328 313 284 282 289
26 27 31 31 32 29 25 22 23 14 4 341 331 328 306 276 264 265 289 318 345 339 348 352 358 345 7 1 3 359 357 10 15 20 353 317 265 230 189 346 287 254 279 326 282 229 249
26 26 28 29 26 25 20 17 16 15 8 358 332 329 329 302 272 257 266 291 324 332 337 340 353 348 347 1 2 2 360 4 359 1 347 335 313 252 242 250 263 226 97 28 275 176 245
19 17 18 19 19 20 18 15 12 11 7 0 344 334 337 320 294 251 253 269 311 324 334 340 355 5 6 3 359 352 355 7 9 22 8 338 25 20 339 203 288 236 195 195 312 192 173
0 2 7 5 11 12 14 9 10 8 6 2 350 341 341 330 312 245 244 257 305 295 342 333 350 346 354 345 340 8 360 341 343 331 344 75 53 324 224 172 244 253 249 159 250 176 179
335 347 352 357 2 5 6 7 5 4 4 2 353 343 347 339 321 230 234 257 288 272 346 42 323 263 319 334 343 0 11 339 328 292 338 271 305 241 206 209 246 247 247 206 292 162 138
330 338 340 349 354 357 359 1 3 360 360 0 357 347 351 351 339 215 224 214 288 263 305 278 317 304 323 332 319 347 350 349 13 304 316 13 264 215 242 255 265 287 195 331 63 73 124
314 329 334 338 343 347 350 357 358 358 358 357 357 351 353 358 4 285 225 231 262 287 312 287 311 300 322 328 316 325 340 328 264 319 348 162 270 319 197 224 101 350 43 319 242 141 59
303 312 322 328 333 336 342 348 352 354 356 355 354 353 353 358 349 330 287 207 242 158 61 293 344 346 320 317 300 337 340 335 339 309 330 275 317 356 4 43 356 61 329 281 89 42 147
294 302 310 318 324 329 332 338 344 348 353 357 353 350 355 1 348 319 301 265 133 117 33 285 302 326 321 293 314 349 352 326 321 302 60 270 316 356 348 326 311 234 337 18 78 71 47
289 292 299 305 310 318 323 328 336 342 348 354 355 347 357 4 352 342 322 161 132 44 276 337 303 344 19 318 314 310 350 348 306 314 280 258 279 204 236 287 265 323 64 34 48 69 22
282 286 291 296 302 309 316 320 328 336 344 351 354 350 356 5 14 24 156 135 32 103 281 307 324 357 324 299 326 17 9 20 43 19 357 329 259 261 240 326 138 136 72 359 13 8 218
286 288 290 294 297 301 305 311 321 329 338 346 349 329 1 4 17 69 167 54 57 249 252 320 328 308 281 6 317 346 26 27 114 106 39 6 337 32 7 285 186 129 137 151 221 207 259
279 280 284 284 290 295 299 304 312 322 331 340 341 313 326 357 359 1 330 58 204 200 216 322 319 329 309 344 238 14 352 240 255 164 134 31 288 333 29 4 13 29 62 167 104 29 47
279 279 279 282 283 287 292 296 303 313 323 333 334 304 272 348 339 324 80 235 220 226 165 134 225 138 285 301 351 47 319 252 292 239 290 210 307 260 288 48 53 59 155 18 14 220 279
276 276 276 275 278 280 284 289 295 304 315 328 324 285 252 338 321 203 140 226 240 232 221 162 192 234 233 281 247 281 252 258 195 304 219 287 7 286 12 104 173 355 356 17 144 113 172
274 271 272 273 274 272 274 276 283 294 307 317 307 312 235 309 316 71 169 197 244 205 206 267 239 210 208 218 270 268 246 218 189 180 215 220 158 274 250 62 221 299 185 137 115 278 169
280 277 270 266 267 268 268 269 273 283 300 317 290 264 233 239 212 278 257 265 230 193 206 189 249 221 192 218 274 216 259 193 175 172 187 181 293 334 348 4 347 29 197 117 100 32 209
277 274 275 270 262 260 259 258 259 266 280 301 286 318 215 211 217 156 188 239 263 223 250 203 224 198 221 249 214 271 275 249 223 176 154 150 177 194 207 219 195 291 231 180 130 110 239
270 273 271 269 267 262 254 247 248 251 257 264 241 253 232 245 239 178 174 213 201 260 216 215 239 211 194 254 249 239 225 311 179 131 111 119 252 184 253 253 237 240 231 194 194 204 187
266 266 268 267 264 262 254 244 238 237 240 238 241 216 212 242 265 178 206 223 191 227 172 220 209 185 196 222 208 221 204 194 208 129 63 348 268 1 289 86 196 266 237 226 228 226 260
259 260 260 261 264 258 246 238 233 231 232 226 229 235 220 213 152 134 231 211 195 171 220 216 202 182 216 235 251 262 248 254 204 168 166 79 0 22 270 342 314 300 233 187 191 197 174
252 253 253 254 255 256 242 233 228 226 229 229 228 211 187 256 186 198 219 209 208 209 222 217 201 171 225 212 269 266 249 253 241 237 185 146 135 148 274 334 357 259 115 184 207 236 214
266 256 248 248 248 251 240 227 226 225 226 231 232 224 211 232 207 242 222 218 217 205 218 231 228 214 204 254 357 320 300 290 217 4 182 162 123 245 261 270 286 56 251 167 176 295 201
265 260 254 243 242 245 235 223 221 225 226 228 230 226 228 196 234 219 168 203 194 193 312 216 218 201 185 106 129 228 239 245 211 154 55 82 90 136 174 223 254 62 158 202 191 307 181
284 269 243 238 234 235 232 222 221 221 226 228 227 222 222 245 258 193 187 183 178 165 168 208 178 163 181 139 195 209 250 208 238 186 170 153 152 196 209 253 288 268 173 156 64 253 250
311 278 233 230 230 229 227 218 221 222 224 229 229 221 218 232 255 240 229 184 165 186 159 162 126 193 97 175 188 215 206 231 264 178 177 174 158 200 134 199 291 183 121 183 263 325 298
5 347 243 227 223 226 223 220 220 223 228 229 230 223 223 227 254 244 239 235 224 224 207 179 244 163 175 122 189 50 239 222 202 240 103 240 194 186 202 233 313 235 256 309 315 307 318
Wind_Speed_850mb
12 16 20 22 25 29 32 32 26 16 15 15 10 12 13 11 9 12 19 27 25 28 32 29 28 25 24 10 13 20 19 20 17 10 3 5 10 6 6 9 8 7 7 15 19 20 26
11 15 18 22 27 30 32 34 34 26 17 16 16 15 18 19 18 15 15 20 26 25 27 30 25 24 25 11 25 21 19 19 17 8 8 8 4 10 1 4 7 3 4 16 34 34 21
10 14 18 23 25 28 30 33 35 35 27 18 17 18 19 22 23 20 17 17 25 23 28 24 25 19 12 18 25 19 19 19 23 8 12 5 11 9 8 10 8 6 7 12 25 9 11
9 13 17 20 23 27 29 33 35 37 36 26 17 19 23 21 22 23 20 16 22 25 23 20 23 15 6 25 26 23 18 14 17 12 5 7 7 6 4 2 6 5 4 4 13 22 17
8 12 15 18 21 24 27 31 34 37 40 34 20 19 27 22 19 19 18 15 20 18 19 10 19 12 8 20 29 22 18 16 13 10 6 6 4 8 7 3 5 4 3 5 19 27 11
8 11 14 17 20 24 27 30 33 37 41 40 26 20 29 22 17 14 14 12 17 9 16 6 16 6 9 23 27 19 15 13 8 7 7 4 4 4 3 4 4 5 6 4 15 9 7
8 11 13 16 20 23 27 29 33 37 41 44 33 20 28 23 14 10 11 8 9 6 4 4 5 1 19 27 14 14 13 10 8 6 3 4 3 2 11 10 13 7 5 11 5 4 7
10 12 16 18 20 23 25 30 34 38 42 45 37 20 26 20 9 6 7 4 4 4 6 7 9 15 14 19 11 15 15 6 5 5 5 4 7 7 13 15 15 12 8 7 4 6 4
11 12 15 19 20 22 24 27 33 37 42 46 37 20 24 14 9 2 5 4 3 4 2 7 10 13 10 14 9 15 17 9 2 7 5 3 10 13 7 3 4 6 5 4 3 5 8
13 14 15 18 20 22 23 26 30 35 40 46 39 18 22 11 7 4 1 3 2 1 9 10 6 5 12 8 6 16 13 6 5 6 9 8 12 10 8 7 5 4 11 5 4 5 3
15 15 16 17 19 22 23 25 29 34 37 43 40 17 20 11 7 4 1 3 2 5 8 8 10 10 19 6 10 9 13 5 4 8 5 10 9 9 7 6 5 1 6 4 5 8 7
21 18 17 18 18 19 21 25 29 31 36 42 37 16 21 13 7 4 1 2 5 12 7 10 9 11 9 5 6 11 5 7 6 6 6 10 4 4 5 6 3 6 4 11 8 6 7
23 23 21 21 22 20 21 23 27 30 34 39 32 13 22 13 7 1 1 3 10 10 4 9 6 9 5 6 10 12 8 10 7 12 11 14 5 4 3 1 2 5 8 6 7 6 8
28 27 26 26 25 24 21 22 25 28 31 36 29 10 18 13 6 1 3 9 10 6 8 5 4 7 6 7 3 12 5 6 2 7 2 6 14 2 4 3 8 5 10 9 5 4 7
34 31 31 29 29 28 26 23 24 25 29 34 28 10 9 13 6 1 1 9 12 10 2 6 9 4 7 2 2 7 6 3 5 3 7 6 10 9 4 8 7 4 4 5 10 4 5
43 40 36 35 32 30 29 27 24 24 26 31 27 11 7 10 5 2 7 6 5 6 6 5 0 2 4 8 9 7 4 2 4 3 2 7 7 3 8 6 5 4 3 5 5 2 7
49 48 45 41 38 34 31 30 27 24 27 27 22 8 5 7 4 1 5 8 7 10 7 6 7 4 8 5 3 4 5 5 4 4 3 2 0 11 1 4 7 6 5 5 5 6 2
55 53 51 48 45 40 34 31 30 25 24 22 12 4 7 4 1 3 3 7 3 6 8 6 4 9 7 3 5 5 7 10 5 2 2 0 5 9 10 1 1 3 5 6 6 3 4
62 61 59 54 52 47 40 34 31 27 21 21 12 9 10 6 2 4 5 5 6 7 8 7 6 9 6 6 3 6 5 3 7 7 5 5 2 8 13 8 3 2 1 6 5 6 8
68 64 62 64 59 52 45 38 34 28 22 16 9 4 7 8 5 7 3 5 4 7 6 8 6 3 3 5 10 6 4 2 4 3 6 6 4 10 11 10 5 9 4 5 6 4 2
76 71 66 63 63 61 52 41 37 32 23 13 9 8 5 4 6 6 6 3 5 5 8 9 4 11 11 6 4 8 5 5 1 1 3 4 6 7 13 18 8 10 13 11 13 9 9
84 80 74 69 66 65 60 47 39 35 29 23 9 8 6 3 3 6 7 10 13 6 11 8 9 3 12 10 12 10 5 7 6 1 0 3 5 6 10 1 8 11 15 16 11 7 16
86 86 81 75 72 66 62 52 43 39 34 21 23 21 8 6 7 7 9 12 14 11 10 8 14 5 9 17 24 18 17 8 5 9 5 1 2 6 10 8 13 11 10 11 9 9 11
87 97 86 81 77 72 63 54 50 46 43 37 23 18 13 8 8 11 7 14 14 14 6 6 14 9 4 5 6 10 9 12 10 10 9 8 5 3 7 10 5 7 4 8 13 11 17
80 91 101 89 82 78 69 61 55 52 49 46 38 28 15 7 16 11 18 12 9 9 8 10 15 11 7 2 3 7 4 2 3 1 6 5 7 2 1 4 13 4 3 5 5 10 11
90 87 99 101 87 80 71 68 62 56 53 49 45 38 21 5 15 18 10 18 10 7 5 9 10 11 9 5 3 6 9 6 5 3 7 7 6 6 3 2 7 1 1 5 3 9 4
71 80 99 102 88 78 72 70 64 59 55 53 44 42 37 14 20 20 11 12 15 8 4 3 9 10 12 5 6 8 8 5 5 9 9 5 2 8 6 7 14 5 6 5 5 9 3
32 48 80 96 86 79 74 73 66 60 54 56 56 44 44 16 30 22 26 17 16 13 8 13 7 4 5 6 7 6 7 6 2 6 9 11 11 7 4 3 11 7 6 6 5 9 10
39 21 48 100 81 72 73 73 67 61 61 57 61 53 46 36 15 27 38 33 29 20 19 26 5 10 15 6 3 1 5 3 5 4 2 4 6 3 12 8 3 5 10 13 25 26 23
Wind_Direction_850mb
26 24 36 35 39 37 32 25 16 7 5 355 316 285 275 269 284 320 348 357 353 358 2 3 2 4 13 12 5 354 349 344 344 330 17 217 254 220 191 171 243 241 282 277 274 291 289
25 30 32 35 33 32 29 26 22 13 359 347 341 306 277 267 267 289 323 345 350 350 351 2 354 359 13 25 2 357 358 8 358 332 309 289 210 253 301 227 198 251 328 313 284 282 289
26 27 31 31 32 29 25 22 23 14 4 341 331 328 306 276 264 265 289 318 345 339 348 352 358 345 7 1 3 359 357 10 15 20 353 317 265 230 189 346 287 254 279 326 282 229 249
26 26 28 29 26 25 20 17 16 15 8 358 332 329 329 302 272 257 266 291 324 332 337 340 353 348 347 1 2 2 360 4 359 1 347 335 313 252 242 250 263 226 97 28 275 176 245
19 17 18 19 19 20 18 15 12 11 7 0 344 334 337 320 294 251 253 269 311 324 334 340 355 5 6 3 359 352 355 7 9 22 8 338 25 20 339 203 288 236 195 195 312 192 173
0 2 7 5 11 12 14 9 10 8 6 2 350 341 341 330 312 245 244 257 305 295 342 333 350 346 354 345 340 8 360 341 343 331 344 75 53 324 224 172 244 253 249 159 250 176 179
335 347 352 357 2 5 6 7 5 4 4 2 353 343 347 339 321 230 234 257 288 272 346 42 323 263 319 334 343 0 11 339 328 292 338 271 305 241 206 209 246 247 247 206 292 162 138
330 338 340 349 354 357 359 1 3 360 360 0 357 347 351 351 339 215 224 214 288 263 305 278 317 304 323 332 319 347 350 349 13 304 316 13 264 215 242 255 265 287 195 331 63 73 124
314 329 334 338 343 347 350 357 358 358 358 357 357 351 353 358 4 285 225 231 262 287 312 287 311 300 322 328 316 325 340 328 264 319 348 162 270 319 197 224 101 350 43 319 242 141 59
303 312 322 328 333 336 342 348 352 354 356 355 354 353 353 358 349 330 287 207 242 158 61 293 344 346 320 317 300 337 340 335 339 309 330 275 317 356 4 43 356 61 329 281 89 42 147
294 302 310 318 324 329 332 338 344 348 353 357 353 350 355 1 348 319 301 265 133 117 33 285 302 326 321 293 314 349 352 326 321 302 60 270 316 356 348 326 311 234 337 18 78 71 47
289 292 299 305 310 318 323 328 336 342 348 354 355 347 357 4 352 342 322 161 132 44 276 337 303 344 19 318 314 310 350 348 306 314 280 258 279 204 236 287 265 323 64 34 48 69 22
282 286 291 296 302 309 316 320 328 336 344 351 354 350 356 5 14 24 156 135 32 103 281 307 324 357 324 299 326 17 9 20 43 19 357 329 259 261 240 326 138 136 72 359 13 8 218
286 288 290 294 297 301 305 311 321 329 338 346 349 329 1 4 17 69 167 54 57 249 252 320 328 308 281 6 317 346 26 27 114 106 39 6 337 32 7 285 186 129 137 151 221 207 259
279 280 284 284 290 295 299 304 312 322 331 340 341 313 326 357 359 1 330 58 204 200 216 322 319 329 309 344 238 14 352 240 255 164 134 31 288 333 29 4 13 29 62 167 104 29 47
279 279 279 282 283 287 292 296 303 313 323 333 334 304 272 348 339 324 80 235 220 226 165 134 225 138 285 301 351 47 319 252 292 239 290 210 307 260 288 48 53 59 155 18 14 220 279
276 276 276 275 278 280 284 289 295 304 315 328 324 285 252 338 321 203 140 226 240 232 221 162 192 234 233 281 247 281 252 258 195 304 219 287 7 286 12 104 173 355 356 17 144 113 172
274 271 272 273 274 272 274 276 283 294 307 317 307 312 235 309 316 71 169 197 244 205 206 267 239 210 208 218 270 268 246 218 189 180 215 220 158 274 250 62 221 299 185 137 115 278 169
280 277 270 266 267 268 268 269 273 283 300 317 290 264 233 239 212 278 257 265 230 193 206 189 249 221 192 218 274 216 259 193 175 172 187 181 293 334 348 4 347 29 197 117 100 32 209
277 274 275 270 262 260 259 258 259 266 280 301 286 318 215 211 217 156 188 239 263 223 250 203 224 198 221 249 214 271 275 249 223 176 154 150 177 194 207 219 195 291 231 180 130 110 239
270 273 271 269 267 262 254 247 248 251 257 264 241 253 232 245 239 178 174 213 201 260 216 215 239 211 194 254 249 239 225 311 179 131 111 119 252 184 253 253 237 240 231 194 194 204 187
266 266 268 267 264 262 254 244 238 237 240 238 241 216 212 242 265 178 206 223 191 227 172 220 209 185 196 222 208 221 204 194 208 129 63 348 268 1 289 86 196 266 237 226 228 226 260
259 260 260 261 264 258 246 238 233 231 232 226 229 235 220 213 152 134 231 211 195 171 220 216 202 182 216 235 251 262 248 254 204 168 166 79 0 22 270 342 314 300 233 187 191 197 174
252 253 253 254 255 256 242 233 228 226 229 229 228 211 187 256 186 198 219 209 208 209 222 217 201 171 225 212 269 266 249 253 241 237 185 146 135 148 274 334 357 259 115 184 207 236 214
266 256 248 248 248 251 240 227 226 225 226 231 232 224 211 232 207 242 222 218 217 205 218 231 228 214 204 254 357 320 300 290 217 4 182 162 123 245 261 270 286 56 251 167 176 295 201
265 260 254 243 242 245 235 223 221 225 226 228 230 226 228 196 234 219 168 203 194 193 312 216 218 201 185 106 129 228 239 245 211 154 55 82 90 136 174 223 254 62 158 202 191 307 181
284 269 243 238 234 235 232 222 221 221 226 228 227 222 222 245 258 193 187 183 178 165 168 208 178 163 181 139 195 209 250 208 238 186 170 153 152 196 209 253 288 268 173 156 64 253 250
311 278 233 230 230 229 227 218 221 222 224 229 229 221 218 232 255 240 229 184 165 186 159 162 126 193 97 175 188 215 206 231 264 178 177 174 158 200 134 199 291 183 121 183 263 325 298
5 347 243 227 223 226 223 220 220 223 228 229 230 223 223 227 254 244 239 235 224 224 207 179 244 163 175 122 189 50 239 222 202 240 103 240 194 186 202 233 313 235 256 309 315 307 318